METEOR 1-5 DEB

Satellite information

Favourite Embed

Satellite Type and Status

DEBRISIN ORBIT

Key statistics

Satellite METEOR 1-5 DEB at a glance.

Uptime

20157

Days in orbit

Revolutions

≈ 14.1

Per day

Orbit

LEO

Low Earth Orbit

Inclination

81.2

Latest

Satellite identification and parameters

Extended collection of information and parameters for METEOR 1-5 DEB.

Object identification

Identified? True

Debris? True

Object name: METEOR 1-5 DEB

International designator: 1970-047F

Object number (NORAD): 58399

Object ID (CCSDS): 58399

Country: COMMONWEALTH OF INDEPENDENT STATES (CIS)

Current information (Y/N): Y

RCS size: SMALL

Orbital parameters

Period: 102.125 minutes

Inclination: 81.2225 deg

SMA: 7237.404 km

Apoapsis: 876.454 km

Periapsis: 842.084 km

RAAN: 175.3861 deg

Eccentricy: 0.00237443

Argument of periapsis: 343.9596 deg

Mean anomaly: 16.082 deg

Mean motion: 14.10030571 rev/day

Mean motion (dot): 0.00001777 rev/day2

B* drag term: 0.00099811457 1/REarth

Two-line elements (TLE)

Creation date: Aug. 26, 2025, 10:27 p.m.

Reference frame: TEME

Reference center: EARTH

Epoch: Aug. 26, 2025, 5:32 a.m. UTC

TLE line 0: 0 METEOR 1-5 DEB

TLE line 1: 1 58399U 70047F 25238.23093951 .00001777 00000-0 99811-3 0 9997

TLE line 2: 2 58399 81.2225 175.3861 0023744 343.9596 16.0820 14.10030571 94413

Live tracking on map

Real-time ground track for satellite METEOR 1-5 DEB.

In-orbit conjunctions

A list of the most updated potential collisions computed for object METEOR 1-5 DEB.

Target Orbit TCA Probability of collision Miss distance Type
FENGYUN 1C DEB SSO 2025-04-27 09:20:51 0.0001448121 139.0 (m) DEBRIS
SL-3 R/B SSO 2025-03-28 21:31:08 0.0001666324 314.0 (m) ROCKET BODY
COSMOS 1833 LEO 2025-03-25 19:34:40 0.0001717779 870.0 (m) PAYLOAD
FENGYUN 1C DEB SSO 2024-11-10 07:41:12 0.0002721393 841.0 (m) DEBRIS
FENGYUN 1C DEB SSO 2024-09-04 16:03:29 0.0008808097 37.0 (m) DEBRIS

Associated space launch

The Meteor-1 series was the first series of Soviet meteorological satellites.

METEOR 1-5 DEB was lifted into orbit during the mission ‘Vostok 8A92M | Meteor-1 5 (17L)’, on board a Vostok 8A92M space rocket.

The launch took place on June 23, 1970, 2:15 p.m. from 41/1.

For more information about the launch, click the button.

Launch to space Vostok 8A92M | Meteor-1 5 (17L)
Vostok 8A92M | Meteor-1 5 (17L)

Agency: N/A

Status: Launch Successful

Launch date: June 23, 1970, 2:15 p.m. UTC

Rocket: Vostok 8A92M

Launch pad: 41/1

Location: Plesetsk Cosmodrome, Russian Federation

...

Latest news about this satellite

There are no fresh news available about this satellite. Check back as we update our databases every day.


Newsletter sign-up

Weekly statistics, charts and insights to help you stay on top of the space industry.